Location: Shenandoah County Park
(38.9356°N, 78.4524°W)
Time: 05:17:53
(UTC-04:00)

Explorer 11/Cluster Stage 4 - Pass Details

Date: 26 February 2024
Orbit: 465 x 1220 km, 28.8° (Epoch: 12 April)

Event Time Altitude Azimuth Distance (km) Brightness Sun altitude
Rises 02:44:54 0° 253° (WSW) 4,119 - -46.9°
Reaches altitude 10° 02:48:06 10° 246° (WSW) 3,119 - -46.4°
Maximum altitude 02:55:08 37° 183° (S) 1,637 - -45.2°
Drops below altitude 10° 03:01:22 10° 118° (ESE) 2,744 - -44.2°
Exits shadow 03:01:37 - 117° (ESE) 2,821 9.7 -44.2°
Sets 03:04:00 0° 110° (ESE) 3,577 10.4 -43.8°
